| time (UTC) | temp F | wind direction | speed MPH | gust MPH | rain 1hr in | rain 24hr in | rain mn in | humidity % | barometer mb |
| 20260506165039 | 74 | 333 | 6.0 | 13.0 | 0.00 | 0.00 | 0.00 | 28 | 1015.8 |
| 20260506164555 | 73 | 27 | 7.0 | 15.0 | 0.00 | 0.00 | 0.00 | 28 | 1015.8 |
| 20260506164039 | 73 | 302 | 7.0 | 15.0 | 0.00 | 0.00 | 0.00 | 28 | 1015.8 |
| 20260506163538 | 73 | 318 | 7.0 | 12.0 | 0.00 | 0.00 | 0.00 | 28 | 1015.8 |
| 20260506163051 | 73 | 326 | 6.0 | 12.0 | 0.00 | 0.00 | 0.00 | 27 | 1015.7 |
| 20260506162541 | 73 | 345 | 3.0 | 13.0 | 0.00 | 0.00 | 0.00 | 28 | 1015.7 |
| 20260506162041 | 72 | 330 | 6.0 | 13.0 | 0.00 | 0.00 | 0.00 | 28 | 1015.7 |
| 20260506161554 | 72 | 21 | 5.0 | 12.0 | 0.00 | 0.00 | 0.00 | 28 | 1015.6 |
| 20260506161038 | 72 | 23 | 7.0 | 12.0 | 0.00 | 0.00 | 0.00 | 28 | 1015.6 |
| 20260506160540 | 72 | 323 | 5.0 | 13.0 | 0.00 | 0.00 | 0.00 | 28 | 1015.6 |
| 20260506160055 | 71 | 269 | 4.0 | 14.0 | 0.00 | 0.00 | 0.00 | 28 | 1015.7 |
| 20260506155538 | 70 | 11 | 7.0 | 14.0 | 0.00 | 0.00 | 0.00 | 29 | 1015.6 |
| 20260506155038 | 69 | 0 | 2.0 | 7.0 | 0.00 | 0.00 | 0.00 | 33 | 1015.7 |
| 20260506154552 | 68 | 82 | 4.0 | 9.0 | 0.00 | 0.00 | 0.00 | 35 | 1015.7 |
| 20260506154038 | 68 | 23 | 3.0 | 9.0 | 0.00 | 0.00 | 0.00 | 33 | 1015.6 |
| 20260506153544 | 68 | 65 | 2.0 | 9.0 | 0.00 | 0.00 | 0.00 | 34 | 1015.6 |
| 20260506153045 | 67 | 34 | 3.0 | 9.0 | 0.00 | 0.00 | 0.00 | 35 | 1015.6 |
| 20260506152538 | 67 | 75 | 4.0 | 9.0 | 0.00 | 0.00 | 0.00 | 36 | 1015.5 |
| 20260506152038 | 67 | 74 | 1.0 | 9.0 | 0.00 | 0.00 | 0.00 | 36 | 1015.5 |
| 20260506151554 | 67 | 60 | 3.0 | 10.0 | 0.00 | 0.00 | 0.00 | 37 | 1015.4 |
| 20260506151038 | 67 | 0 | 5.0 | 10.0 | 0.00 | 0.00 | 0.00 | 34 | 1015.4 |
| 20260506150544 | 66 | 84 | 5.0 | 10.0 | 0.00 | 0.00 | 0.00 | 36 | 1015.4 |
| 20260506150056 | 66 | 65 | 5.0 | 10.0 | 0.00 | 0.00 | 0.00 | 37 | 1015.4 |
| 20260506145539 | 65 | 44 | 2.0 | 7.0 | 0.00 | 0.00 | 0.00 | 38 | 1015.4 |
| 20260506145039 | 65 | 67 | 0.0 | 7.0 | 0.00 | 0.00 | 0.00 | 39 | 1015.4 |
| 20260506144544 | 64 | 90 | 1.0 | 5.0 | 0.00 | 0.00 | 0.00 | 40 | 1015.3 |
| 20260506144040 | 64 | 53 | 1.0 | 5.0 | 0.00 | 0.00 | 0.00 | 39 | 1015.3 |
| 20260506143540 | 64 | 41 | 1.0 | 5.0 | 0.00 | 0.00 | 0.00 | 39 | 1015.2 |
| 20260506143050 | 64 | 41 | 1.0 | 7.0 | 0.00 | 0.00 | 0.00 | 38 | 1015.2 |
| 20260506142540 | 64 | 0 | 0.0 | 10.0 | 0.00 | 0.00 | 0.00 | 35 | 1015.1 |
| 20260506142040 | 64 | 25 | 4.0 | 13.0 | 0.00 | 0.00 | 0.00 | 34 | 1015.1 |
| 20260506141552 | 64 | 38 | 7.0 | 13.0 | 0.00 | 0.00 | 0.00 | 34 | 1015.0 |
| 20260506141039 | 63 | 32 | 3.0 | 7.0 | 0.00 | 0.00 | 0.00 | 35 | 1014.9 |
| 20260506140538 | 63 | 31 | 0.0 | 7.0 | 0.00 | 0.00 | 0.00 | 35 | 1014.9 |
| 20260506140052 | 62 | 335 | 1.0 | 8.0 | 0.00 | 0.00 | 0.00 | 35 | 1014.9 |
| 20260506135540 | 62 | 25 | 4.0 | 8.0 | 0.00 | 0.00 | 0.00 | 35 | 1014.9 |
| 20260506135038 | 62 | 0 | 3.0 | 8.0 | 0.00 | 0.00 | 0.00 | 35 | 1014.8 |
| 20260506134554 | 62 | 20 | 3.0 | 9.0 | 0.00 | 0.00 | 0.00 | 36 | 1014.8 |
| 20260506134042 | 62 | 51 | 5.0 | 9.0 | 0.00 | 0.00 | 0.00 | 35 | 1014.7 |
| 20260506133539 | 61 | 33 | 5.0 | 9.0 | 0.00 | 0.00 | 0.00 | 36 | 1014.6 |
| 20260506133059 | 61 | 40 | 3.0 | 9.0 | 0.00 | 0.00 | 0.00 | 35 | 1014.5 |
| 20260506132539 | 62 | 335 | 2.0 | 7.0 | 0.00 | 0.00 | 0.00 | 35 | 1014.4 |
| 20260506132043 | 62 | 4 | 1.0 | 7.0 | 0.00 | 0.00 | 0.00 | 35 | 1014.4 |
| 20260506131606 | 61 | 330 | 2.0 | 7.0 | 0.00 | 0.00 | 0.00 | 35 | 1014.3 |
| 20260506131039 | 61 | 320 | 3.0 | 7.0 | 0.00 | 0.00 | 0.00 | 35 | 1014.2 |
| 20260506130541 | 61 | 345 | 2.0 | 8.0 | 0.00 | 0.00 | 0.00 | 35 | 1014.1 |
| 20260506130053 | 61 | 335 | 3.0 | 8.0 | 0.00 | 0.00 | 0.00 | 35 | 1014.1 |
| 20260506125540 | 61 | 328 | 4.0 | 8.0 | 0.00 | 0.00 | 0.00 | 35 | 1014.0 |
| 20260506125040 | 61 | 0 | 4.0 | 8.0 | 0.00 | 0.00 | 0.00 | 36 | 1013.9 |
| 20260506124552 | 61 | 337 | 4.0 | 8.0 | 0.00 | 0.00 | 0.00 | 36 | 1013.9 |
| 20260506124045 | 61 | 360 | 2.0 | 7.0 | 0.00 | 0.00 | 0.00 | 36 | 1013.8 |
| 20260506123542 | 61 | 13 | 1.0 | 6.0 | 0.00 | 0.00 | 0.00 | 36 | 1013.8 |
| 20260506123049 | 61 | 10 | 3.0 | 7.0 | 0.00 | 0.00 | 0.00 | 36 | 1013.7 |
| 20260506122540 | 61 | 307 | 3.0 | 8.0 | 0.00 | 0.00 | 0.00 | 36 | 1013.7 |
| 20260506122040 | 61 | 25 | 3.0 | 8.0 | 0.00 | 0.00 | 0.00 | 35 | 1013.6 |
| 20260506121556 | 61 | 18 | 2.0 | 10.0 | 0.00 | 0.00 | 0.00 | 35 | 1013.6 |
| 20260506121040 | 61 | 347 | 4.0 | 10.0 | 0.00 | 0.00 | 0.00 | 35 | 1013.7 |
| 20260506120540 | 61 | 297 | 3.0 | 7.0 | 0.00 | 0.00 | 0.00 | 35 | 1013.6 |
| 20260506115539 | 61 | 354 | 2.0 | 9.0 | 0.00 | 0.00 | 0.00 | 35 | 1013.6 |
| 20260506115040 | 61 | 356 | 3.0 | 9.0 | 0.00 | 0.00 | 0.00 | 36 | 1013.5 |
| 20260506114555 | 60 | 4 | 4.0 | 7.0 | 0.00 | 0.00 | 0.00 | 36 | 1013.5 |
| 20260506114041 | 59 | 23 | 2.0 | 6.0 | 0.00 | 0.00 | 0.00 | 37 | 1013.5 |
| 20260506113538 | 59 | 27 | 1.0 | 5.0 | 0.00 | 0.00 | 0.00 | 37 | 1013.4 |
| 20260506113050 | 59 | 0 | 0.0 | 4.0 | 0.00 | 0.00 | 0.00 | 37 | 1013.4 |
| 20260506112540 | 59 | 0 | 0.0 | 5.0 | 0.00 | 0.00 | 0.00 | 38 | 1013.4 |
| 20260506112038 | 58 | 0 | 1.0 | 7.0 | 0.00 | 0.00 | 0.00 | 38 | 1013.4 |
| 20260506111551 | 58 | 349 | 1.0 | 7.0 | 0.00 | 0.00 | 0.00 | 39 | 1013.4 |
| 20260506111041 | 58 | 0 | 0.0 | 0.0 | 0.00 | 0.00 | 0.00 | 40 | 1013.3 |
| 20260506110538 | 58 | 0 | 0.0 | 0.0 | 0.00 | 0.00 | 0.00 | 41 | 1013.3 |
| 20260506110100 | 58 | 0 | 0.0 | 0.0 | 0.00 | 0.00 | 0.00 | 40 | 1013.1 |
| 20260506105538 | 58 | 0 | 0.0 | 0.0 | 0.00 | 0.00 | 0.00 | 40 | 1013.1 |
| 20260506105042 | 58 | 0 | 0.0 | 0.0 | 0.00 | 0.00 | 0.00 | 40 | 1013.0 |
| 20260506104558 | 58 | 0 | 0.0 | 3.0 | 0.00 | 0.00 | 0.00 | 40 | 1013.0 |
| 20260506104039 | 58 | 0 | 0.0 | 3.0 | 0.00 | 0.00 | 0.00 | 40 | 1013.0 |
| 20260506103541 | 58 | 0 | 0.0 | 3.0 | 0.00 | 0.00 | 0.00 | 40 | 1013.0 |
| 20260506103048 | 58 | 0 | 0.0 | 1.0 | 0.00 | 0.00 | 0.00 | 39 | 1012.9 |
| 20260506102539 | 58 | 0 | 0.0 | 1.0 | 0.00 | 0.00 | 0.00 | 39 | 1012.9 |
| 20260506102042 | 59 | 0 | 0.0 | 0.0 | 0.00 | 0.00 | 0.00 | 39 | 1012.8 |
| 20260506101554 | 59 | 0 | 0.0 | 0.0 | 0.00 | 0.00 | 0.00 | 39 | 1012.6 |
| 20260506101038 | 59 | 0 | 0.0 | 0.0 | 0.00 | 0.00 | 0.00 | 39 | 1012.5 |
| 20260506100538 | 59 | 0 | 0.0 | 0.0 | 0.00 | 0.00 | 0.00 | 39 | 1012.5 |
| 20260506095538 | 59 | 0 | 0.0 | 0.0 | 0.00 | 0.00 | 0.00 | 39 | 1012.3 |
| 20260506095039 | 59 | 0 | 0.0 | 0.0 | 0.00 | 0.00 | 0.00 | 39 | 1012.2 |
| 20260506094556 | 58 | 0 | 0.0 | 0.0 | 0.00 | 0.00 | 0.00 | 39 | 1012.2 |
| 20260506094040 | 59 | 0 | 0.0 | 0.0 | 0.00 | 0.00 | 0.00 | 39 | 1012.1 |
| 20260506093541 | 59 | 0 | 0.0 | 0.0 | 0.00 | 0.00 | 0.00 | 38 | 1012.1 |
| 20260506093051 | 59 | 0 | 0.0 | 0.0 | 0.00 | 0.00 | 0.00 | 38 | 1012.1 |
| 20260506092539 | 59 | 0 | 0.0 | 0.0 | 0.00 | 0.00 | 0.00 | 38 | 1012.0 |
| 20260506092041 | 60 | 0 | 0.0 | 0.0 | 0.00 | 0.00 | 0.00 | 37 | 1012.0 |
| 20260506091546 | 60 | 0 | 0.0 | 0.0 | 0.00 | 0.00 | 0.00 | 37 | 1012.0 |
| 20260506091039 | 60 | 0 | 0.0 | 0.0 | 0.00 | 0.00 | 0.00 | 37 | 1012.0 |
| 20260506090540 | 60 | 0 | 0.0 | 1.0 | 0.00 | 0.00 | 0.00 | 37 | 1012.1 |
| 20260506090051 | 60 | 0 | 0.0 | 1.0 | 0.00 | 0.00 | 0.00 | 37 | 1012.0 |
| 20260506085539 | 60 | 0 | 0.0 | 0.0 | 0.00 | 0.00 | 0.00 | 37 | 1012.0 |
| 20260506085040 | 61 | 0 | 0.0 | 0.0 | 0.00 | 0.00 | 0.00 | 37 | 1012.1 |
| 20260506084617 | 61 | 0 | 0.0 | 0.0 | 0.00 | 0.00 | 0.00 | 36 | 1012.1 |
| 20260506084040 | 62 | 0 | 0.0 | 0.0 | 0.00 | 0.00 | 0.00 | 36 | 1012.1 |
| 20260506083540 | 62 | 0 | 0.0 | 0.0 | 0.00 | 0.00 | 0.00 | 36 | 1012.1 |
| 20260506083051 | 62 | 0 | 0.0 | 0.0 | 0.00 | 0.00 | 0.00 | 36 | 1012.1 |
| 20260506082541 | 63 | 0 | 0.0 | 0.0 | 0.00 | 0.00 | 0.00 | 36 | 1012.0 |
| 20260506082040 | 63 | 0 | 0.0 | 4.0 | 0.00 | 0.00 | 0.00 | 35 | 1012.1 |
| 20260506081556 | 64 | 0 | 0.0 | 5.0 | 0.00 | 0.00 | 0.00 | 34 | 1012.0 |
| 20260506081040 | 65 | 0 | 0.0 | 6.0 | 0.00 | 0.00 | 0.00 | 32 | 1012.1 |
| 20260506080540 | 65 | 273 | 3.0 | 6.0 | 0.00 | 0.00 | 0.00 | 32 | 1012.0 |
| 20260506073046 | 66 | 341 | 0.0 | 4.0 | 0.00 | 0.00 | 0.00 | 30 | 1011.9 |
| 20260506072540 | 66 | 0 | 2.0 | 4.0 | 0.00 | 0.00 | 0.00 | 30 | 1011.9 |
| 20260506072042 | 66 | 290 | 2.0 | 4.0 | 0.00 | 0.00 | 0.00 | 30 | 1011.9 |
| 20260506071554 | 66 | 0 | 0.0 | 4.0 | 0.00 | 0.00 | 0.00 | 30 | 1011.9 |
| 20260506071040 | 66 | 323 | 1.0 | 4.0 | 0.00 | 0.00 | 0.00 | 30 | 1011.9 |
| 20260506070540 | 66 | 315 | 1.0 | 4.0 | 0.00 | 0.00 | 0.00 | 30 | 1011.9 |
| 20260506062040 | 67 | 0 | 0.0 | 1.0 | 0.00 | 0.00 | 0.00 | 30 | 1011.7 |
| 20260506061555 | 67 | 0 | 0.0 | 0.0 | 0.00 | 0.00 | 0.00 | 30 | 1011.6 |
| 20260506061041 | 67 | 0 | 0.0 | 3.0 | 0.00 | 0.00 | 0.00 | 30 | 1011.5 |
| 20260506060540 | 67 | 0 | 0.0 | 3.0 | 0.00 | 0.00 | 0.00 | 30 | 1011.5 |
| 20260506051040 | 67 | 0 | 0.0 | 0.0 | 0.00 | 0.00 | 0.00 | 32 | 1011.1 |
| 20260506050540 | 67 | 0 | 0.0 | 0.0 | 0.00 | 0.00 | 0.00 | 32 | 1011.0 |
| 20260506045039 | 68 | 0 | 0.0 | 0.0 | 0.00 | 0.00 | 0.00 | 32 | 1010.9 |
| 20260506044547 | 68 | 0 | 0.0 | 0.0 | 0.00 | 0.00 | 0.00 | 33 | 1010.8 |
| 20260506044045 | 68 | 0 | 0.0 | 0.0 | 0.00 | 0.00 | 0.00 | 33 | 1010.7 |
| 20260506043540 | 68 | 0 | 0.0 | 0.0 | 0.00 | 0.00 | 0.00 | 33 | 1010.6 |
| 20260506043052 | 68 | 0 | 0.0 | 0.0 | 0.00 | 0.00 | 0.00 | 33 | 1010.7 |
| 20260506042540 | 68 | 0 | 0.0 | 0.0 | 0.00 | 0.00 | 0.00 | 33 | 1010.6 |
| 20260506042041 | 69 | 0 | 0.0 | 0.0 | 0.00 | 0.00 | 0.00 | 33 | 1010.5 |
| 20260506041604 | 69 | 0 | 0.0 | 0.0 | 0.00 | 0.00 | 0.00 | 32 | 1010.4 |
| 20260506041040 | 69 | 0 | 0.0 | 0.0 | 0.00 | 0.00 | 0.00 | 31 | 1010.4 |
| 20260506040540 | 69 | 0 | 0.0 | 0.0 | 0.00 | 0.00 | 0.00 | 31 | 1010.3 |
| 20260506040052 | 69 | 0 | 0.0 | 0.0 | 0.00 | 0.00 | 0.00 | 31 | 1010.1 |
| 20260506035540 | 70 | 0 | 0.0 | 3.0 | 0.00 | 0.00 | 0.00 | 31 | 1010.1 |
| 20260506035040 | 70 | 0 | 0.0 | 3.0 | 0.00 | 0.00 | 0.00 | 30 | 1010.0 |
| 20260506034550 | 70 | 0 | 0.0 | 4.0 | 0.00 | 0.00 | 0.00 | 30 | 1009.9 |
| 20260506034043 | 70 | 0 | 0.0 | 4.0 | 0.00 | 0.00 | 0.00 | 30 | 1009.8 |
| 20260506033539 | 70 | 0 | 0.0 | 3.0 | 0.00 | 0.00 | 0.00 | 30 | 1009.6 |
| 20260506033052 | 70 | 0 | 0.0 | 4.0 | 0.00 | 0.00 | 0.00 | 30 | 1009.6 |
| 20260506032541 | 70 | 0 | 0.0 | 4.0 | 0.00 | 0.00 | 0.00 | 30 | 1009.5 |
| 20260506032041 | 70 | 0 | 0.0 | 3.0 | 0.00 | 0.00 | 0.00 | 29 | 1009.4 |
| 20260506031554 | 71 | 0 | 0.0 | 0.0 | 0.00 | 0.00 | 0.00 | 29 | 1009.3 |
| 20260506031040 | 71 | 0 | 0.0 | 2.0 | 0.00 | 0.00 | 0.00 | 29 | 1009.3 |
| 20260506030544 | 71 | 0 | 0.0 | 8.0 | 0.00 | 0.00 | 0.00 | 29 | 1009.1 |
| 20260506030052 | 71 | 0 | 0.0 | 9.0 | 0.00 | 0.00 | 0.00 | 28 | 1009.1 |
| 20260506025540 | 71 | 0 | 2.0 | 9.0 | 0.00 | 0.00 | 0.00 | 28 | 1009.0 |
| 20260506025042 | 72 | 0 | 0.0 | 7.0 | 0.00 | 0.00 | 0.00 | 27 | 1008.9 |
| 20260506024545 | 72 | 186 | 2.0 | 7.0 | 0.00 | 0.00 | 0.00 | 26 | 1008.9 |
| 20260506024040 | 72 | 169 | 3.0 | 7.0 | 0.00 | 0.00 | 0.00 | 26 | 1008.8 |
| 20260506023540 | 72 | 155 | 2.0 | 6.0 | 0.00 | 0.00 | 0.00 | 25 | 1008.8 |
| 20260506023103 | 72 | 0 | 1.0 | 7.0 | 0.00 | 0.00 | 0.00 | 25 | 1008.7 |
| 20260506022540 | 72 | 148 | 1.0 | 8.0 | 0.00 | 0.00 | 0.00 | 24 | 1008.7 |
| 20260506022040 | 73 | 172 | 1.0 | 8.0 | 0.00 | 0.00 | 0.00 | 24 | 1008.7 |
| 20260506021608 | 73 | 177 | 0.0 | 7.0 | 0.00 | 0.00 | 0.00 | 23 | 1008.7 |
| 20260506021044 | 73 | 201 | 3.0 | 7.0 | 0.00 | 0.00 | 0.00 | 23 | 1008.6 |
| 20260506020539 | 74 | 207 | 0.0 | 8.0 | 0.00 | 0.00 | 0.00 | 23 | 1008.5 |
| 20260506020050 | 74 | 193 | 3.0 | 9.0 | 0.00 | 0.00 | 0.00 | 23 | 1008.5 |
| 20260506015541 | 74 | 137 | 2.0 | 9.0 | 0.00 | 0.00 | 0.00 | 22 | 1008.4 |
| 20260506015044 | 75 | 194 | 2.0 | 8.0 | 0.00 | 0.00 | 0.00 | 21 | 1008.4 |
| 20260506014545 | 75 | 180 | 2.0 | 7.0 | 0.00 | 0.00 | 0.00 | 21 | 1008.4 |
| 20260506014045 | 75 | 0 | 3.0 | 7.0 | 0.00 | 0.00 | 0.00 | 21 | 1008.3 |
| 20260506013543 | 75 | 167 | 1.0 | 6.0 | 0.00 | 0.00 | 0.00 | 21 | 1008.2 |
| 20260506013057 | 75 | 0 | 1.0 | 7.0 | 0.00 | 0.00 | 0.00 | 21 | 1008.3 |
| 20260506012540 | 75 | 0 | 0.0 | 7.0 | 0.00 | 0.00 | 0.00 | 21 | 1008.4 |
| 20260506012041 | 74 | 0 | 2.0 | 8.0 | 0.00 | 0.00 | 0.00 | 22 | 1008.3 |
| 20260506011551 | 74 | 159 | 3.0 | 8.0 | 0.00 | 0.00 | 0.00 | 21 | 1008.3 |
| 20260506011040 | 75 | 154 | 3.0 | 8.0 | 0.00 | 0.00 | 0.00 | 21 | 1008.4 |
| 20260506010540 | 75 | 173 | 0.0 | 7.0 | 0.00 | 0.00 | 0.00 | 21 | 1008.2 |
| 20260506010057 | 75 | 127 | 1.0 | 7.0 | 0.00 | 0.00 | 0.00 | 21 | 1008.2 |
| 20260506005543 | 76 | 113 | 0.0 | 5.0 | 0.00 | 0.00 | 0.00 | 20 | 1008.2 |
| 20260506005039 | 76 | 0 | 0.0 | 8.0 | 0.00 | 0.00 | 0.00 | 21 | 1008.1 |
| 20260506004548 | 76 | 0 | 1.0 | 8.0 | 0.00 | 0.00 | 0.00 | 21 | 1008.2 |
| 20260506004040 | 75 | 174 | 1.0 | 5.0 | 0.00 | 0.00 | 0.00 | 22 | 1008.2 |
| 20260506003540 | 74 | 0 | 0.0 | 9.0 | 0.00 | 0.00 | 0.00 | 21 | 1008.1 |
| 20260506003047 | 75 | 0 | 2.0 | 10.0 | 0.00 | 0.00 | 0.00 | 21 | 1008.1 |
| 20260506002540 | 75 | 189 | 3.0 | 10.0 | 0.00 | 0.00 | 0.00 | 22 | 1008.1 |
| 20260506002041 | 75 | 160 | 4.0 | 9.0 | 0.00 | 0.00 | 0.00 | 21 | 1008.1 |
| 20260506001547 | 75 | 127 | 2.0 | 6.0 | 0.00 | 0.00 | 0.00 | 21 | 1008.1 |
| 20260506001041 | 75 | 0 | 0.0 | 6.0 | 0.00 | 0.00 | 0.00 | 22 | 1008.1 |
| 20260506000544 | 75 | 132 | 1.0 | 7.0 | 0.00 | 0.00 | 0.00 | 22 | 1008.0 |
| 20260506000054 | 74 | 0 | 1.0 | 7.0 | 0.00 | 0.00 | 0.00 | 22 | 1008.1 |
| 20260505235539 | 74 | 9 | 0.0 | 7.0 | 0.00 | 0.00 | 0.00 | 22 | 1008.0 |
| 20260505235040 | 75 | 28 | 2.0 | 7.0 | 0.00 | 0.00 | 0.00 | 22 | 1008.1 |
| 20260505234545 | 75 | 0 | 1.0 | 8.0 | 0.00 | 0.00 | 0.00 | 21 | 1008.0 |
| 20260505234041 | 75 | 138 | 0.0 | 8.0 | 0.00 | 0.00 | 0.00 | 21 | 1008.0 |
| 20260505233540 | 75 | 262 | 3.0 | 8.0 | 0.00 | 0.00 | 0.00 | 21 | 1008.0 |
| 20260505233050 | 75 | 0 | 0.0 | 6.0 | 0.00 | 0.00 | 0.00 | 21 | 1008.1 |
| 20260505232541 | 75 | 126 | 1.0 | 6.0 | 0.00 | 0.00 | 0.00 | 22 | 1008.1 |
| 20260505232044 | 75 | 0 | 0.0 | 6.0 | 0.00 | 0.00 | 0.00 | 22 | 1008.0 |
| 20260505231606 | 75 | 148 | 1.0 | 6.0 | 0.00 | 0.00 | 0.00 | 22 | 1008.0 |
| 20260505231040 | 74 | 138 | 0.0 | 6.0 | 0.00 | 0.00 | 0.00 | 23 | 1008.1 |
| 20260505230658 | 74 | 79 | 0.0 | 8.0 | 0.00 | 0.00 | 0.00 | 23 | 1008.3 |
| 20260505230048 | 73 | 91 | 2.0 | 11.0 | 0.00 | 0.00 | 0.00 | 23 | 1008.4 |
| 20260505225610 | 73 | 86 | 4.0 | 11.0 | 0.00 | 0.00 | 0.00 | 23 | 1008.5 |
| 20260505225040 | 73 | 73 | 0.0 | 13.0 | 0.00 | 0.00 | 0.00 | 23 | 1008.5 |
| 20260505224554 | 73 | 0 | 6.0 | 13.0 | 0.00 | 0.00 | 0.00 | 23 | 1008.7 |
| 20260505224039 | 73 | 65 | 5.0 | 12.0 | 0.00 | 0.00 | 0.00 | 23 | 1008.6 |
| 20260505223539 | 73 | 85 | 4.0 | 12.0 | 0.00 | 0.00 | 0.00 | 23 | 1008.7 |
| 20260505223054 | 73 | 82 | 4.0 | 12.0 | 0.00 | 0.00 | 0.00 | 23 | 1008.8 |
| 20260505222545 | 73 | 0 | 1.0 | 9.0 | 0.00 | 0.00 | 0.00 | 23 | 1008.8 |
| 20260505222040 | 73 | 71 | 5.0 | 9.0 | 0.00 | 0.00 | 0.00 | 22 | 1008.9 |
| 20260505221550 | 75 | 105 | 3.0 | 8.0 | 0.00 | 0.00 | 0.00 | 22 | 1008.9 |
| 20260505221041 | 75 | 142 | 2.0 | 7.0 | 0.00 | 0.00 | 0.00 | 22 | 1009.1 |
| 20260505220540 | 74 | 154 | 1.0 | 7.0 | 0.00 | 0.00 | 0.00 | 23 | 1009.1 |
| 20260505220058 | 74 | 124 | 1.0 | 12.0 | 0.00 | 0.00 | 0.00 | 23 | 1009.2 |
| 20260505215541 | 74 | 113 | 0.0 | 12.0 | 0.00 | 0.00 | 0.00 | 23 | 1009.2 |
| 20260505215040 | 74 | 228 | 4.0 | 11.0 | 0.00 | 0.00 | 0.00 | 23 | 1009.3 |
| 20260505214557 | 73 | 219 | 0.0 | 9.0 | 0.00 | 0.00 | 0.00 | 24 | 1009.2 |
| 20260505214040 | 72 | 0 | 3.0 | 9.0 | 0.00 | 0.00 | 0.00 | 24 | 1009.2 |
| 20260505213540 | 73 | 102 | 3.0 | 12.0 | 0.00 | 0.00 | 0.00 | 23 | 1009.4 |
| 20260505213052 | 73 | 106 | 6.0 | 12.0 | 0.00 | 0.00 | 0.00 | 24 | 1009.4 |
| 20260505212539 | 73 | 92 | 2.0 | 11.0 | 0.00 | 0.00 | 0.00 | 24 | 1009.4 |
| 20260505212041 | 73 | 0 | 1.0 | 12.0 | 0.00 | 0.00 | 0.00 | 24 | 1009.5 |
| 20260505211554 | 72 | 120 | 3.0 | 12.0 | 0.00 | 0.00 | 0.00 | 25 | 1009.6 |
| 20260505211043 | 72 | 108 | 5.0 | 11.0 | 0.00 | 0.00 | 0.00 | 25 | 1009.6 |
| 20260505210539 | 72 | 156 | 3.0 | 7.0 | 0.00 | 0.00 | 0.00 | 25 | 1009.8 |
| 20260505210051 | 73 | 110 | 2.0 | 11.0 | 0.00 | 0.00 | 0.00 | 25 | 1009.8 |
| 20260505205541 | 72 | 142 | 2.0 | 12.0 | 0.00 | 0.00 | 0.00 | 25 | 1009.8 |
| 20260505205041 | 73 | 197 | 5.0 | 12.0 | 0.00 | 0.00 | 0.00 | 24 | 1009.9 |
| 20260505204550 | 72 | 148 | 0.0 | 5.0 | 0.00 | 0.00 | 0.00 | 26 | 1009.9 |
| 20260505204041 | 72 | 0 | 0.0 | 6.0 | 0.00 | 0.00 | 0.00 | 25 | 1009.9 |
| 20260505203543 | 72 | 0 | 2.0 | 8.0 | 0.00 | 0.00 | 0.00 | 25 | 1010.0 |
| 20260505203106 | 73 | 0 | 2.0 | 12.0 | 0.00 | 0.00 | 0.00 | 25 | 1009.9 |
| 20260505202540 | 72 | 231 | 3.0 | 12.0 | 0.00 | 0.00 | 0.00 | 25 | 1009.9 |
| 20260505202040 | 71 | 149 | 3.0 | 12.0 | 0.00 | 0.00 | 0.00 | 27 | 1009.9 |
| 20260505201554 | 71 | 172 | 5.0 | 11.0 | 0.00 | 0.00 | 0.00 | 27 | 1009.9 |
| 20260505201040 | 71 | 115 | 5.0 | 11.0 | 0.00 | 0.00 | 0.00 | 27 | 1009.9 |
| 20260505200540 | 71 | 156 | 4.0 | 10.0 | 0.00 | 0.00 | 0.00 | 27 | 1010.0 |
| 20260505200053 | 71 | 158 | 4.0 | 27.0 | 0.00 | 0.00 | 0.00 | 28 | 1010.0 |
| 20260505195542 | 71 | 145 | 5.0 | 27.0 | 0.00 | 0.00 | 0.00 | 28 | 1010.1 |
| 20260505195039 | 70 | 197 | 2.0 | 13.0 | 0.00 | 0.00 | 0.00 | 28 | 1010.2 |
| 20260505194553 | 71 | 0 | 1.0 | 13.0 | 0.00 | 0.00 | 0.00 | 27 | 1010.3 |
| 20260505194040 | 71 | 155 | 4.0 | 12.0 | 0.00 | 0.00 | 0.00 | 28 | 1010.3 |
| 20260505193540 | 70 | 191 | 4.0 | 15.0 | 0.00 | 0.00 | 0.00 | 28 | 1010.3 |
| 20260505193051 | 70 | 0 | 6.0 | 15.0 | 0.00 | 0.00 | 0.00 | 28 | 1010.4 |
| 20260505192540 | 71 | 158 | 0.0 | 11.0 | 0.00 | 0.00 | 0.00 | 29 | 1010.4 |
| 20260505192044 | 70 | 163 | 4.0 | 11.0 | 0.00 | 0.00 | 0.00 | 29 | 1010.4 |
| 20260505191600 | 70 | 91 | 1.0 | 12.0 | 0.00 | 0.00 | 0.00 | 29 | 1010.4 |
| 20260505191040 | 71 | 0 | 3.0 | 12.0 | 0.00 | 0.00 | 0.00 | 28 | 1010.4 |
| 20260505190540 | 71 | 168 | 1.0 | 7.0 | 0.00 | 0.00 | 0.00 | 29 | 1010.3 |
| 20260505190049 | 71 | 0 | 0.0 | 8.0 | 0.00 | 0.00 | 0.00 | 29 | 1010.4 |
| 20260505185541 | 69 | 153 | 1.0 | 8.0 | 0.00 | 0.00 | 0.00 | 30 | 1010.4 |
| 20260505185040 | 70 | 99 | 0.0 | 8.0 | 0.00 | 0.00 | 0.00 | 30 | 1010.5 |
| 20260505184547 | 69 | 0 | 2.0 | 11.0 | 0.00 | 0.00 | 0.00 | 31 | 1010.4 |
| 20260505184041 | 69 | 156 | 0.0 | 11.0 | 0.00 | 0.00 | 0.00 | 31 | 1010.5 |
| 20260505183542 | 68 | 107 | 5.0 | 11.0 | 0.00 | 0.00 | 0.00 | 31 | 1010.6 |
| 20260505183050 | 68 | 116 | 2.0 | 11.0 | 0.00 | 0.00 | 0.00 | 32 | 1010.4 |
| 20260505182540 | 68 | 132 | 3.0 | 11.0 | 0.00 | 0.00 | 0.00 | 32 | 1010.4 |
| 20260505182040 | 68 | 84 | 4.0 | 11.0 | 0.00 | 0.00 | 0.00 | 32 | 1010.4 |
| 20260505181551 | 68 | 79 | 0.0 | 10.0 | 0.00 | 0.00 | 0.00 | 32 | 1010.4 |
| 20260505181040 | 68 | 154 | 2.0 | 11.0 | 0.00 | 0.00 | 0.00 | 33 | 1010.6 |
| 20260505180540 | 68 | 0 | 3.0 | 11.0 | 0.00 | 0.00 | 0.00 | 33 | 1010.6 |
| 20260505180052 | 68 | 0 | 0.0 | 6.0 | 0.00 | 0.00 | 0.00 | 33 | 1010.5 |
| 20260505175540 | 67 | 0 | 0.0 | 7.0 | 0.00 | 0.00 | 0.00 | 35 | 1010.6 |
| 20260505175040 | 67 | 0 | 3.0 | 7.0 | 0.00 | 0.00 | 0.00 | 34 | 1010.6 |
| 20260505174549 | 67 | 130 | 2.0 | 11.0 | 0.00 | 0.00 | 0.00 | 35 | 1010.5 |
| 20260505174041 | 66 | 0 | 1.0 | 11.0 | 0.00 | 0.00 | 0.00 | 35 | 1010.6 |
| 20260505173541 | 66 | 206 | 3.0 | 10.0 | 0.00 | 0.00 | 0.00 | 36 | 1010.7 |
| 20260505173047 | 66 | 0 | 1.0 | 8.0 | 0.00 | 0.00 | 0.00 | 36 | 1010.6 |
| 20260505172537 | 66 | 149 | 2.0 | 8.0 | 0.00 | 0.00 | 0.00 | 36 | 1010.8 |
| 20260505172040 | 65 | 0 | 0.0 | 8.0 | 0.00 | 0.00 | 0.00 | 37 | 1010.7 |
| 20260505171553 | 65 | 129 | 1.0 | 7.0 | 0.00 | 0.00 | 0.00 | 38 | 1010.8 |
| 20260505171041 | 64 | 0 | 2.0 | 9.0 | 0.00 | 0.00 | 0.00 | 38 | 1010.8 |
| 20260505170540 | 64 | 136 | 4.0 | 9.0 | 0.00 | 0.00 | 0.00 | 39 | 1010.8 |
| 20260505170108 | 64 | 104 | 0.0 | 5.0 | 0.00 | 0.00 | 0.00 | 40 | 1010.7 |
| 20260505165538 | 63 | 0 | 0.0 | 6.0 | 0.00 | 0.00 | 0.00 | 40 | 1010.8 |